Homestead, FL

8:10 AM EST on February 19, 2017 (GMT -0500)
Dade County-Homestead Regional

Weather History for KHST - June, 2014

Change the Weather History Date:

Tuesday, June 10, 2014

  Actual Average Record
Temperature  
Mean Temperature 76 °F -  
Max Temperature 84 °F 88 °F 95 °F (1948)
Min Temperature 69 °F 70 °F 62 °F (1931)
Cooling Degree Days 12    
Growing Degree Days 26 (Base 50)    
Moisture  
Dew Point 61 °F    
Average Humidity 58    
Maximum Humidity 69    
Minimum Humidity 50    
Precipitation  
Precipitation 2.75 in - - ()
Sea Level Pressure  
Sea Level Pressure 30.03 in    
Wind  
Wind Speed 6 mph (NNW)    
Max Wind Speed 23 mph    
Max Gust Speed 28 mph    
Visibility 7 miles    
Events Rain , Thunderstorm    
Averages and records for this station are not official NWS values.
T = Trace of Precipitation, MM = Missing Value Source: NWS Daily Summary

Daily Weather History Graph

Daily Weather History Graph

Search for Another Location

Airport or City:

Trip Planner

Search our weather history database for the weather conditions in past years. The results will help you decide how hot, cold, wet, or windy it might be!

Date:

Astronomy

Jun. 10, 2014 Rise Set
Actual Time 6:30 AM EDT 8:12 PM EDT
Civil Twilight 6:04 AM EDT 8:37 PM EDT
Nautical Twilight 5:33 AM EDT 9:08 PM EDT
Astronomical Twilight 5:00 AM EDT 9:41 PM EDT
Moon 5:48 PM EDT (6/10) 4:19 AM EDT (6/10)
Length of Visible Light 14h 33m
Length of Day
13h 41m
Waxing Gibbous, 92% of the Moon is Illuminated
Jun 10
Waxing Gibbous
Jun 13
Full
Jun 19
Last Quarter
Jun 27
New
Jul 5
First Quarter

Hourly Weather History & Observations

Time (EDT) Temp. Heat Index Dew Point Humidity Pressure Visibility Wind Dir Wind Speed Gust Speed Precip Events Conditions
12:58 AM 75.7 °F - 61.9 °F 62% 30.01 in 10.0 mi Calm Calm - N/A   Partly Cloudy
1:58 AM 75.6 °F - 61.0 °F 60% 30.01 in 10.0 mi Calm Calm - N/A   Clear
2:58 AM 75.6 °F - 60.8 °F 60% 29.99 in 10.0 mi NW 1.2 mph - N/A   Partly Cloudy
3:58 AM 76.3 °F - 60.8 °F 59% 29.98 in 10.0 mi NNW 2.3 mph - N/A   Partly Cloudy
4:33 AM 77.0 °F - 60.8 °F 57% 29.98 in 9.0 mi NE 2.3 mph - N/A   Partly Cloudy
4:48 AM 77.0 °F - 60.8 °F 57% 29.98 in 9.0 mi North 1.2 mph - N/A   Partly Cloudy
4:58 AM 76.8 °F - 60.3 °F 56% 29.99 in 10.0 mi Calm Calm - N/A   Scattered Clouds
5:08 AM 77.0 °F - 60.8 °F 57% 29.98 in 10.0 mi Calm Calm - N/A Rain Light Rain
5:32 AM 77.0 °F - 62.6 °F 61% 29.98 in 10.0 mi Calm Calm - N/A   Partly Cloudy
5:58 AM 76.8 °F - 61.9 °F 60% 29.99 in 10.0 mi SE 1.2 mph - 0.00 in   Clear
6:58 AM 76.5 °F - 58.5 °F 54% 30.01 in 10.0 mi WNW 1.2 mph - N/A   Clear
7:58 AM 79.7 °F - 59.7 °F 50% 30.02 in 10.0 mi Calm Calm - N/A   Clear
8:58 AM 82.2 °F 83.7 °F 63.9 °F 54% 30.03 in 10.0 mi Variable 2.3 mph - N/A   Partly Cloudy
9:38 AM 82.4 °F 83.9 °F 64.4 °F 54% 30.03 in 10.0 mi West 5.8 mph - N/A   Mostly Cloudy
9:39 AM 82.4 °F 83.9 °F 64.4 °F 54% 30.03 in 10.0 mi NW 6.9 mph - N/A   Light Drizzle
9:42 AM 82.4 °F 83.4 °F 62.6 °F 51% 30.03 in 4.0 mi NNW 13.8 mph - N/A Rain , Thunderstorm Thunderstorms and Rain
9:43 AM 82.4 °F 83.4 °F 62.6 °F 51% 30.03 in 0.2 mi NNW 15.0 mph 25.3 mph N/A Rain , Thunderstorm Heavy Thunderstorms and Rain
9:47 AM 78.8 °F - 62.6 °F 57% 30.03 in 0.2 mi NW 18.4 mph 27.6 mph N/A Rain , Thunderstorm Heavy Thunderstorms and Rain
9:52 AM 77.0 °F - 59.0 °F 54% 30.03 in 3.0 mi NW 18.4 mph 27.6 mph N/A Rain , Thunderstorm Heavy Thunderstorms and Rain
9:58 AM 77.0 °F - 59.0 °F 54% 30.04 in 5.0 mi NW 17.3 mph 24.2 mph 0.59 in Rain , Thunderstorm Light Thunderstorms and Rain
10:03 AM 77.0 °F - 57.2 °F 50% 30.03 in 2.0 mi NNW 11.5 mph 24.2 mph N/A Rain , Thunderstorm Light Thunderstorms and Rain
10:08 AM 77.0 °F - 57.2 °F 50% 30.03 in 9.0 mi WNW 10.4 mph - N/A Rain , Thunderstorm Light Thunderstorms and Rain
10:09 AM 77.0 °F - 57.2 °F 50% 30.03 in 10.0 mi WNW 11.5 mph - N/A Thunderstorm Thunderstorm
10:19 AM 77.0 °F - 59.0 °F 54% 30.03 in 10.0 mi NW 6.9 mph - N/A Thunderstorm Thunderstorm
10:26 AM 77.0 °F - 60.8 °F 57% 30.04 in 10.0 mi NW 10.4 mph - N/A Rain , Thunderstorm Light Thunderstorms and Rain
10:31 AM 77.0 °F - 62.6 °F 61% 30.03 in 3.0 mi WNW 18.4 mph 23.0 mph N/A Rain , Thunderstorm Heavy Thunderstorms and Rain
10:39 AM 77.0 °F - 59.0 °F 54% 30.02 in 5.0 mi WNW 23.0 mph 27.6 mph N/A Rain , Thunderstorm Light Thunderstorms and Rain
10:44 AM 75.2 °F - 59.0 °F 57% 30.02 in 2.5 mi NW 13.8 mph 27.6 mph N/A Rain , Thunderstorm Light Thunderstorms and Rain
10:49 AM 75.2 °F - 57.2 °F 53% 30.04 in 10.0 mi NNW 12.7 mph 27.6 mph N/A Rain , Thunderstorm Light Thunderstorms and Rain
10:52 AM 75.2 °F - 59.0 °F 57% 30.04 in 10.0 mi NW 18.4 mph 23.0 mph N/A Rain , Thunderstorm Light Thunderstorms and Rain
10:58 AM 74.7 °F - 59.0 °F 58% 30.06 in 2.5 mi NW 18.4 mph 23.0 mph 0.18 in Rain , Thunderstorm Thunderstorms and Rain
11:02 AM 73.4 °F - 59.0 °F 61% 30.06 in 0.5 mi WNW 15.0 mph 23.0 mph N/A Rain , Thunderstorm Light Thunderstorms and Rain
11:07 AM 73.4 °F - 59.0 °F 61% 30.07 in 0.5 mi West 20.7 mph - N/A Rain , Thunderstorm Heavy Thunderstorms and Rain
11:12 AM 73.4 °F - 57.2 °F 57% 30.08 in 0.2 mi West 21.9 mph - N/A Rain , Thunderstorm Heavy Thunderstorms and Rain
11:18 AM 71.6 °F - 59.0 °F 64% 30.07 in 0.2 mi WNW 19.6 mph 26.5 mph N/A Rain , Thunderstorm Heavy Thunderstorms and Rain
11:28 AM 71.6 °F - 57.2 °F 60% 30.08 in 0.2 mi NW 11.5 mph 26.5 mph N/A Rain , Thunderstorm Heavy Thunderstorms and Rain
11:33 AM 71.6 °F - 57.2 °F 60% 30.08 in 0.8 mi WNW 9.2 mph - N/A Rain , Thunderstorm Heavy Thunderstorms and Rain
11:43 AM 69.8 °F - 55.4 °F 60% 30.07 in 1.0 mi WNW 8.1 mph - N/A Rain , Thunderstorm Heavy Thunderstorms and Rain
11:47 AM 71.6 °F - 55.4 °F 57% 30.07 in 2.0 mi West 8.1 mph - N/A Rain , Thunderstorm Heavy Thunderstorms and Rain
11:48 AM 71.6 °F - 55.4 °F 57% 30.07 in 1.2 mi WNW 6.9 mph - N/A Rain , Thunderstorm Heavy Thunderstorms and Rain
11:58 AM 71.6 °F - 57.2 °F 60% 30.07 in 2.5 mi NNW 6.9 mph - 1.88 in Rain Heavy Rain
12:07 PM 71.6 °F - 57.2 °F 60% 30.06 in 3.0 mi NW 5.8 mph - N/A Rain Light Rain
12:10 PM 71.6 °F - 57.2 °F 60% 30.06 in 3.0 mi NW 6.9 mph - N/A Rain Light Rain
12:15 PM 71.6 °F - 57.2 °F 60% 30.06 in 4.0 mi Variable 2.3 mph - N/A   Mostly Cloudy
12:21 PM 73.4 °F - 55.4 °F 53% 30.06 in 9.0 mi Variable 3.5 mph - N/A   Mostly Cloudy
12:22 PM 73.4 °F - 53.6 °F 50% 30.06 in 7.0 mi NNW 2.3 mph - N/A Rain Light Rain
12:47 PM 75.2 °F - 59.0 °F 57% 30.06 in 10.0 mi SE 6.9 mph - N/A Rain Light Rain
12:48 PM 75.2 °F - 59.0 °F 57% 30.06 in 10.0 mi SE 5.8 mph - N/A   Partly Cloudy
12:58 PM 75.2 °F - 57.9 °F 55% 30.07 in 10.0 mi SE 5.8 mph - 0.08 in   Clear
1:58 PM 81.1 °F 82.7 °F 64.2 °F 56% 30.04 in 10.0 mi SW 9.2 mph - 0.00 in   Scattered Clouds
2:58 PM 82.9 °F 85.0 °F 65.8 °F 56% 30.04 in 10.0 mi Variable 2.3 mph - N/A   Scattered Clouds
3:38 PM 84.2 °F 87.3 °F 68.0 °F 58% 30.03 in 10.0 mi East 8.1 mph - N/A Rain Light Rain
3:58 PM 81.3 °F 85.0 °F 70.2 °F 69% 30.03 in 8.0 mi ENE 11.5 mph 18.4 mph 0.02 in Rain Light Rain
4:03 PM 80.6 °F 83.2 °F 68.0 °F 65% 30.02 in 10.0 mi East 10.4 mph - N/A   Partly Cloudy
4:08 PM 80.6 °F 83.2 °F 68.0 °F 65% 30.02 in 10.0 mi East 12.7 mph - N/A   Light Drizzle
4:20 PM 80.6 °F 82.7 °F 66.2 °F 61% 30.01 in 10.0 mi ENE 10.4 mph - N/A   Clear
4:43 PM 80.6 °F 82.7 °F 66.2 °F 61% 30.00 in 10.0 mi East 8.1 mph - N/A   Light Drizzle
4:58 PM 81.0 °F 83.3 °F 66.7 °F 62% 30.01 in 8.0 mi East 5.8 mph - 0.00 in Rain Light Rain
5:15 PM 80.6 °F 82.7 °F 66.2 °F 61% 30.00 in 10.0 mi East 6.9 mph - N/A   Clear
5:58 PM 81.7 °F 84.2 °F 67.1 °F 61% 30.00 in 10.0 mi East 5.8 mph - 0.00 in   Clear
6:58 PM 82.9 °F 86.7 °F 69.8 °F 64% 30.01 in 10.0 mi East 6.9 mph - N/A   Clear
7:58 PM 79.9 °F - 68.2 °F 67% 30.02 in 10.0 mi East 3.5 mph - N/A   Clear
8:58 PM 79.3 °F - 66.0 °F 64% 30.03 in 10.0 mi ENE 3.5 mph - N/A   Scattered Clouds
9:58 PM 79.0 °F - 64.6 °F 61% 30.03 in 10.0 mi ESE 4.6 mph - N/A   Partly Cloudy
10:58 PM 77.9 °F - 63.3 °F 61% 30.05 in 10.0 mi ESE 3.5 mph - N/A   Clear
11:58 PM 77.9 °F - 62.2 °F 58% 30.04 in 10.0 mi SE 2.3 mph - N/A   Partly Cloudy